Location: Theydon Bois
(51.6750°N, 0.1050°E)
Time: 08:43:28
(UTC+01:00)

Daily predictions for brighter satellites

Satellite Brightness Start Highest point End
(mag) Time Altitude Azimuth Time Altitude Azimuth Time Altitude Azimuth
NOSS 3-4 (A) 4.5 21:04:51 10° NW 21:11:15 47° NNE 21:18:24 10° ESE
NOSS 3-4 (C) 4.5 21:04:57 10° NW 21:11:21 47° NNE 21:18:30 10° ESE
Cosmos 1805 Rocket 3.8 21:10:47 10° NNW 21:15:09 76° W 21:19:29 10° S
COSMOS 2406 3.9 21:10:08 10° NNW 21:15:34 44° NE 21:20:58 10° ESE
Cosmos 1933 3.5 21:13:42 10° S 21:17:38 53° E 21:21:34 10° NNE
Cosmos 1354 Rocket 4.4 21:12:56 10° S 21:17:49 42° ESE 21:22:45 10° NE
Cosmos 968 Rocket 3.6 21:13:43 10° SSW 21:18:59 87° WNW 21:24:15 10° NNE
Meteor 1-20 Rocket 4.3 21:13:54 10° NNW 21:19:35 86° E 21:25:07 10° SSE
SPOT 1/Viking Rocket 4.0 21:15:13 10° SE 21:20:12 49° ENE 21:25:12 10° N
Cosmos 1633 Rocket 3.4 21:17:45 10° N 21:22:05 53° ENE 21:26:23 10° SSE
IGS 5A 3.5 21:19:08 10° SSE 21:23:16 72° ENE 21:27:25 10° N
ATLAS 2AS CENTAUR R/B 3.8 21:17:22 10° NW 21:24:34 42° NNE 21:31:17 10° E
USA 305 3.0 21:21:06 10° WNW 21:25:23 77° NNE 21:29:40 10° ESE
OBJECT-B 3.3 21:29:59 10° SW 21:32:34 21° W 21:35:08 10° NW
Cosmos 1470 Rocket 4.2 21:29:00 10° N 21:33:17 42° ENE 21:37:33 10° SE
ARIANE 5 R/B 3.3 21:29:29 10° SE 21:33:32 40° ENE 21:37:36 10° N
SPOT 3 Rocket 3.6 21:29:15 10° SSE 21:34:25 88° WSW 21:39:37 10° NNW
Cosmos 1782 3.2 21:30:58 10° SSE 21:34:47 45° E 21:38:37 10° NNE
Cosmos 1328 Rocket 4.1 21:31:08 10° SSE 21:35:16 40° E 21:39:24 10° NNE
Cosmos 1486 Rocket 4.3 21:30:37 10° SSW 21:35:58 79° WNW 21:41:21 10° NNE
Gbstr 26 Del rocket 4.4 21:28:02 10° W 21:36:02 89° SSE 21:42:54 10° E
Cosmos 1602 3.7 21:33:22 10° N 21:37:15 85° ENE 21:41:08 10° S
USA 215 4.0 21:31:25 10° ENE 21:37:47 57° N 21:44:09 10° W
Cosmos 2278 Rocket 3.2 21:35:43 10° SSE 21:40:16 26° ESE 21:44:50 10° NE
CZ-2C R/B 4.0 21:36:29 10° NNE 21:40:49 48° E 21:45:13 10° S
Cosmos 1745 Rocket 4.5 21:34:44 10° NNW 21:40:51 62° W 21:46:54 10° S
Cosmos 1606 4.4 21:37:33 10° SW 21:41:04 36° WNW 21:44:38 10° N
MetOp-B 4.2 21:37:03 10° SSE 21:42:25 86° ENE 21:47:49 10° NNW
Cosmos 1709 Rocket 4.0 21:37:20 10° N 21:43:30 87° E 21:49:37 10° S
Cosmos 1437 3.3 21:41:33 11° SSE 21:44:01 31° E 21:46:35 10° NNE
CARTOSAT-1 4.1 21:40:09 11° SE 21:44:07 45° ENE 21:48:16 10° N
USA 306 2.9 21:40:22 10° WNW 21:44:39 86° NNE 21:48:56 10° ESE
Intercosmos 24 4.0 21:42:46 10° SSW 21:46:23 68° W 21:50:03 10° N
Cosmos 1844 Rocket 3.1 21:41:22 10° SW 21:46:55 69° WNW 21:52:32 10° NNE
Cosmos 1933 Rocket 4.3 21:43:33 10° N 21:47:38 38° ENE 21:51:09 13° SE
Cosmos 1538 Rocket 4.4 21:43:47 10° NNW 21:49:06 56° ENE 21:53:47 13° SE
Cosmos 1666 Rocket 3.8 21:45:11 10° NNW 21:49:35 73° W 21:53:56 10° S
Terra 2.8 21:49:51 12° SE 21:53:43 34° ENE 21:58:01 10° N
ERBS 4.0 21:51:12 10° WNW 21:54:12 31° N 21:57:13 10° ENE
SPOT 5 3.5 21:50:15 12° SE 21:54:43 48° ENE 21:59:48 10° N
USA 290 4.4 21:53:10 10° NW 21:55:46 22° WSW 21:58:20 10° SSW
Cosmos 773 Rocket 4.1 21:50:27 10° NNW 21:55:47 80° WSW 22:00:48 11° SSE
X-37B 2.6 21:57:11 10° WSW 21:59:19 17° SSW 22:00:37 14° S
Cosmos 1242 Rocket 3.1 21:58:19 10° SSW 22:01:51 58° WNW 22:05:21 10° N
USA 245 1.9 22:01:54 18° S 22:03:24 78° WSW 22:05:40 10° NNW
ATLAS 5 CENTAUR R/B 3.3 21:59:00 10° NW 22:04:11 40° WSW 22:10:12 10° S
Spot 2 Rocket 3.5 21:59:32 12° SSE 22:04:15 82° ENE 22:09:20 10° NNW
Cosmos 1812 3.1 22:02:05 13° SSE 22:05:16 44° E 22:08:59 10° NNE
Cosmos 2315 Rocket 4.1 22:01:43 10° S 22:08:05 88° ESE 22:14:32 10° N
SJ 16-02 2.3 22:05:55 15° SSE 22:08:46 29° ESE 22:12:37 10° NE
USA 307 2.9 22:06:34 10° WNW 22:10:51 79° SSW 22:14:12 16° ESE
Cosmos 1536 4.2 22:09:10 10° N 22:12:38 27° ENE 22:14:57 16° ESE
Cosmos 1844 4.5 22:08:19 10° SW 22:13:56 56° NW 22:19:32 10° NNE
ERS-1 Rocket 3.0 22:10:30 15° SSE 22:14:34 69° ENE 22:19:36 10° N
Meteor 1-5 Rocket 4.1 22:09:40 10° NNW 22:15:07 82° ENE 22:19:34 15° SSE
Cosmos 1666 2.8 22:11:33 10° N 22:15:15 60° ENE 22:17:42 20° SSE
Cosmos 1833 Rocket 2.8 22:13:07 10° NNW 22:18:48 79° WSW 22:23:15 17° SSE
deb Kosmos-1763 3.9 22:15:55 10° NNW 22:19:28 82° ENE 22:21:39 22° SSE
JB-3 4.3 22:17:03 10° NNE 22:20:57 60° E 22:23:58 15° S
Resurs 01 Rocket 3.3 22:18:09 10° SSW 22:22:03 29° W 22:25:58 10° NNW
USA 308 2.9 22:20:07 10° WNW 22:24:24 69° SSW 22:27:15 20° SE
CREW DRAGON DEMO-1 DEB 2.9 22:22:20 10° W 22:24:53 44° SSW 22:25:39 32° SSE
Cosmos 2228 Rocket 3.9 22:23:48 20° SE 22:26:09 34° E 22:30:12 10° NNE
Cosmos 1743 4.4 22:23:47 10° NNE 22:26:45 21° ENE 22:28:36 15° ESE
Cosmos 1151 Rocket 3.8 22:23:45 10° SSW 22:28:02 54° WNW 22:32:21 10° N
Cosmos 1777 Rocket 3.9 22:24:39 10° SSW 22:29:50 77° ESE 22:35:04 10° NNE
Cosmos 2084 3.3 22:33:41 10° SW 22:37:50 82° SE 22:42:08 10° NE
BREEZE M DEB (TANK) 2.1 22:36:30 10° W 22:40:02 35° SSW 22:40:27 32° S
Cosmos 923 Rocket 4.1 22:36:49 10° NNW 22:42:05 68° ENE 22:45:24 23° SE
Cosmos 2084 Rocket 4.4 22:44:26 10° NW 22:48:26 41° NNE 22:51:43 15° E
CZ-4C R/B 3.5 22:43:39 10° NW 22:50:32 51° WSW 22:56:21 19° S
Cosmos 1515 Rocket 4.0 22:50:23 11° SSW 22:54:35 62° WNW 22:58:57 10° N
Cosmos 1869 Rocket 3.5 22:52:08 10° N 22:56:29 80° ENE 22:58:40 29° SSE
Cosmos 2082 Rocket 2.2 22:50:57 10° NNW 22:56:35 77° WSW 22:59:58 25° SSE
COSMOS 2406 4.1 22:54:35 10° NW 22:59:53 41° WSW 23:03:39 18° S
Cosmos 1544 3.3 22:58:20 10° N 23:01:55 56° ENE 23:03:05 36° SE
NOSS 3-4 (A) 3.9 22:55:45 10° NW 23:02:35 68° SW 23:07:31 24° SSE
NOSS 3-4 (C) 3.9 22:55:52 10° NW 23:02:42 69° SW 23:07:38 24° SSE
USA 305 3.5 23:01:10 10° WNW 23:05:11 40° SW 23:06:30 31° S
Meteor 1-27 Rocket 3.8 23:05:25 22° S 23:09:14 72° E 23:15:10 10° NNE
SL-24 DEB 4.2 23:07:10 27° S 23:09:43 82° W 23:14:22 10° N
ARIANE 5 R/B 4.2 23:06:49 12° SSW 23:10:07 27° W 23:13:50 10° NW
Cosmos 1271 Rocket 3.0 23:08:06 21° SSW 23:10:41 69° WNW 23:14:42 10° N
SL-8 Rocket 4.5 23:06:58 10° N 23:13:07 50° ENE 23:16:39 25° SE
NOSS 3-3 (A) 4.4 23:07:55 10° WSW 23:13:51 68° NW 23:20:45 10° NE
NOSS 3-3 (C) 4.4 23:08:01 10° WSW 23:13:58 68° NW 23:20:51 10° NE
ATLAS 2AS CENTAUR R/B 2.8 23:08:46 10° NW 23:16:17 85° SW 23:20:39 25° SE
Cosmos 1707 Rocket 3.9 23:16:19 34° SE 23:17:46 48° E 23:22:01 10° NNE
Iridium 4 Rocket 4.4 23:14:30 13° SSW 23:19:33 54° W 23:25:22 10° N
USA 215 3.6 23:13:58 10° E 23:20:26 67° NNE 23:26:55 10° WNW
Cosmos 2112 Rocket 4.0 23:15:26 10° NNW 23:20:50 89° ENE 23:23:29 31° SSE
Cosmos 1515 4.4 23:21:30 33° ESE 23:22:04 35° E 23:25:33 10° NNE
BREEZE-M R/B 2.6 23:19:46 10° W 23:21:31 40° WSW 23:21:31 40° WSW
ALOS 2 4.0 23:20:18 20° ESE 23:22:17 29° ENE 23:26:05 10° N
Cosmos 2154 Rocket 4.2 23:17:00 10° NNW 23:23:19 68° W 23:27:20 23° S
Gbstr 26 Del rocket 4.1 23:15:57 10° W 23:23:34 83° SSW 23:29:05 14° ESE
Cosmos 2278 Rocket 2.5 23:18:17 10° SW 23:23:54 67° NW 23:29:34 10° NNE
USA 306 3.8 23:20:31 10° WNW 23:24:20 32° SW 23:25:01 30° SSW
ERBS 2.8 23:27:29 10° WNW 23:30:45 56° NNE 23:32:05 31° E
Terra 2.9 23:28:43 20° SSW 23:31:26 38° W 23:35:53 10° NNW
Meteor 1-11 Rocket 4.5 23:25:50 10° NNW 23:31:35 50° W 23:35:20 21° SSW
SPOT 5 4.5 23:29:28 15° SSW 23:32:59 30° W 23:37:37 10° NNW
Cosmos 2369 Rocket 3.5 23:32:39 20° ESE 23:33:35 21° E 23:37:44 10° NE
Cosmos 1943 Rocket 2.8 23:33:19 31° SE 23:34:58 37° ESE 23:40:06 10° NE
Cosmos 1340 Rocket 3.0 23:31:50 10° NNW 23:35:55 68° W 23:37:15 40° S
Okean 1 3.8 23:35:16 39° SE 23:36:01 44° E 23:39:50 10° NNE
Cosmos 962 Rocket 4.4 23:32:54 10° N 23:39:04 84° W 23:42:18 30° S
SL-24 R/B - RUBIN 2 4.0 23:33:34 10° NW 23:39:10 73° SW 23:41:12 36° SSE
Meteor 2-9 Rocket 4.4 23:34:05 10° N 23:39:54 65° ENE 23:42:35 32° SE
Nadezhda 1 Rocket 4.3 23:40:16 18° SSW 23:45:04 63° WNW 23:51:17 10° N
SJ 16-02 2.6 23:43:03 10° SW 23:47:14 39° WNW 23:51:26 10° NNE
Cosmos 1733 Rocket 2.9 23:42:56 10° N 23:47:17 89° E 23:48:36 45° S
Cosmos 1680 Rocket 4.0 23:43:04 10° NNW 23:48:14 51° WSW 23:50:28 31° SSW
Cosmos 1536 4.1 23:45:26 10° NNW 23:49:06 33° W 23:50:40 24° SW
Cosmos 1937 Rocket 3.6 23:47:49 37° SSE 23:49:35 56° ESE 23:54:39 10° NNE
Spot 4 3.8 23:47:43 38° SSE 23:49:37 83° ENE 23:54:31 10° NNW
USA 307 4.3 23:46:57 10° W 23:50:18 24° SW 23:50:18 24° SW
Cosmos 44 3.6 23:47:02 10° NW 23:52:24 62° SW 23:54:21 37° S
